Regional Weather Roundup
Issued by NWS

Home | Current Version | Previous Version | Text Only | Print | Product List | Glossary On
Versions: 1 2 3 4 5 6 7 8 9 10 11 12 13 14 15 16 17 18 19 20 21 22 23 24 25 26 27 28
000
ASUS45 KTFX 162110
RWRMT
MONTANA REGIONAL WEATHER ROUNDUP
NATIONAL WEATHER SERVICE GREAT FALLS MT
200 PM MST MON JAN 16 2017

NOTE: "FAIR" INDICATES FEW OR NO CLOUDS BELOW 12000 FEET WITH NO
SIGNIFICANT WEATHER AND/OR OBSTRUCTIONS TO VISIBILITY.

MTZ001>007-043-162200-
WEST OF THE DIVIDE

CITY           SKY/WX    TMP DP  RH WIND       PRES   REMARKS
KALISPELL      LGT SNOW  13   9  84 CALM      30.32F
MISSOULA       SUNNY      7   0  73 CALM      30.33F
BUTTE          CLOUDY    15   4  61 CALM      30.17F
MULLAN PASS    MOSUNNY   25  18  74 S6        30.12F WCI  18
ANACONDA         N/A     18   3  53 CALM      30.19F
DEER LODGE       N/A     10   1  67 W3        30.23F
EUREKA           N/A     12   3  67 CALM      30.33F
HAMILTON         N/A     16   3  57 CALM      30.29F
RONAN            N/A      9   4  80 MISG      30.31F
$$

MTZ008-052>055-162200-
SOUTHWEST MONTANA

CITY           SKY/WX    TMP DP  RH WIND       PRES   REMARKS
BOZEMAN        CLOUDY    17   6  62 CALM      30.18F
DILLON         CLOUDY    32   5  32 S8        30.16F WCI  25
W YELLOWSTONE  CLOUDY    10   9  92 CALM      30.17F
ENNIS          SUNNY     21  10  63 SE6       30.19S WCI  14
TWIN BRIDGES     N/A     17   2  52 SE5       30.15F
$$

MTZ009-010-012-014-046-048-049-054-162200-
EAST SLOPES AND CENTRAL MONTANA

CITY           SKY/WX    TMP DP  RH WIND       PRES   REMARKS
CUT BANK       MOSUNNY   38  23  55 W22       29.92F WCI  27
GREAT FALLS    CLOUDY    33  19  56 SW22      30.01F WCI  21
MALMSTROM AFB  CLOUDY    32  22  68 SW17      30.02F WCI  21
HELENA         CLOUDY     6  -2  69 CALM      30.19F
AUGUSTA          N/A     38  20  49 W22       29.97F WCI  27
BOWMANS CRNR     N/A     26  15  62 S29       29.99F WCI  10
CHOTEAU          N/A     41  21  45 W8G15     29.98F
CONRAD           N/A     28  21  75 S7        29.98F WCI  21
FAIRFIELD        N/A     31  19  60 SW23      29.97F WCI  18
POWER            N/A     31  20  64 S14       29.98F WCI  21
RAYNESFORD       N/A     38  15  38 W6        30.02F
ULM              N/A     31  18  60 MISG      30.03F
$$

MTZ011-013-016-021-045-047-050-051-162200-
NORTH CENTRAL MONTANA

CITY           SKY/WX    TMP DP  RH WIND       PRES   REMARKS
HAVRE          CLOUDY    20  13  74 SW8       30.03F WCI  10
LEWISTOWN      CLOUDY    33  13  43 CALM      30.01F
N BAR RANCH      N/A     34  14  44 CALM      30.02F
CHINOOK          N/A     21  10  63 E5        30.05F
DENTON           N/A     24  16  71 NE6       29.99F WCI  16
FORT BENTON      N/A     25  12  58 MISG      30.04F
GEYSER           N/A     35  18  51 SW10      30.00F WCI  27
GRASS RANGE      N/A     37  18  45 W3        29.98F
JUDITH GAP       N/A     28  18  67 S8        30.00F WCI  20
ROY              N/A     34  18  52 MISG      30.00F
STANFORD         N/A     31  20  65 CALM      30.00F
WINIFRED         N/A     32  18  55 CALM      30.02F
$$

MTZ017>020-022>027-061-062-162200-
NORTHEAST MONTANA

CITY           SKY/WX    TMP DP  RH WIND       PRES   REMARKS
GLASGOW        CLOUDY    19   7  59 W10       30.09F WCI   7
JORDAN           N/A     30  18  60 W7        30.08F WCI  23
SIDNEY         SUNNY     19  12  74 S8        30.11F WCI   9
WOLF POINT     SUNNY     18  10  71 W8        30.12S WCI   8
PLENTYWOOD       N/A     23  12  63 CALM      30.07S
POPLAR           N/A     18   9  68 W7        30.12F WCI   8
SCOBEY           N/A     22  10  59 CALM      30.04F
$$

MTZ028>42-056>058-162200-
SOUTHCENTRAL AND SOUTHEAST MONTANA

CITY           SKY/WX    TMP DP  RH WIND       PRES   REMARKS
BAKER          SUNNY     19  11  70 W8        30.09F WCI   9
BILLINGS       MOSUNNY   26  11  52 SW18      30.07F WCI  13
LIVINGSTON     CLOUDY    29  12  49 W18       30.09F WCI  16
MILES CITY     SUNNY     16   6  65 S5        30.11F
BIG TIMBER     SUNNY     32  12  43 W30       30.05F WCI  18
EKALAKA          N/A     24   8  50 SW6       30.04F WCI  17
FORSYTH          N/A     18   7  62 CALM      30.10F
HARLOWTON        N/A     33  15  46 W28G36    30.03F WCI  20
LAUREL           N/A     25  11  55 S10       30.06F WCI  15
$$

REGIONAL REPORTS...DAKOTAS

CITY           SKY/WX    TMP DP  RH WIND       PRES   REMARKS
WILLISTON      SUNNY     20  14  77 SW7       30.10F WCI  11
MINOT          SUNNY     29  22  75 W17       30.03S WCI  17
DICKINSON      SUNNY     21  14  74 W15       30.03F WCI   8
BEACH            N/A     19  14  79 W14       30.10F WCI   6
CROSBY           N/A     19  16  86 SW13      30.09S WCI   7
TIOGA            N/A     19  18  93 W13       30.07F WCI   7
WATFORD CITY     N/A     18  12  79 SW6       30.09F WCI   9
BISMARCK       SUNNY     27  16  63 NW6       30.06R WCI  20
GRAND FORKS    CLOUDY    20  12  71 SW5       30.03R
FARGO          SUNNY     21  11  65 W6        30.05S WCI  13
BUFFALO SD       N/A     27  17  66 NW16      29.99S WCI  15
RAPID CITY     SUNNY     34  20  56 N20       30.04S WCI  23
$$

REGIONAL REPORTS...WYOMING/IDAHO/WASHINGTON

CITY           SKY/WX    TMP DP  RH WIND       PRES   REMARKS
GILLETTE       SUNNY     31  15  52 W9        30.09S WCI  23
SHERIDAN       SUNNY     33  16  49 SW12      30.09F WCI  24
BUFFALO WY     SUNNY     33  10  38 CALM      30.08F
CODY           CLOUDY    26   8  46 NE3       30.08F
YELLOWSTONE LA   N/A      9   2  73 CALM      30.15F
IDAHO FALLS    CLOUDY     5  -1  76 N5        30.31F
SALMON         SUNNY     -9 -17  70 CALM      30.48F
BOISE          SUNNY     11   5  77 S6        30.44F WCI   1
SPOKANE        FOG       15  12  88 CALM      30.31F VSB 1/2
$$

REGIONAL REPORTS...ALBERTA

CITY           SKY/WX    TMP DP  RH WIND       PRES   REMARKS
EDMONTON       PTSUNNY   34  18  51 SW5       29.68F
CALGARY        CLOUDY    34  21  60 S10       29.79F WCI  26
LETHBRIDGE     CLOUDY    39  23  52 W23G30    29.87F WCI  29
MEDICINE HAT   PTSUNNY   34  21  60 S13G20    29.91F WCI  25
WATERTON GATE    N/A     36  14  41 SW36G52     N/A  WCI  21
CARDSTON         N/A     43  19  39 W18G31      N/A
MILK RIVER       N/A     34  23  64 SW2         N/A
$$

REGIONAL REPORTS...SASKATCHEWAN

CITY           SKY/WX    TMP DP  RH WIND       PRES   REMARKS
SWIFT CURRENT  SUNNY     32  23  69 SW16      29.95F WCI  21
REGINA         PTSUNNY   25  18  74 S5        30.02F
SASKATOON      PTSUNNY   30  19  64 SW15G22   29.92F WCI  19
VAL MARIE        N/A     19  10  68 SW1         N/A
ROCKGLEN         N/A     32  23  69 SW14        N/A  WCI  22
ASSINIBOIA       N/A     28  19  69 S12         N/A  WCI  18
$$



USA.gov is the U.S. government's official web portal to all federal, state and local government web resources and services.